TimeEST,TemperatureF,Dew PointF,Humidity,Sea Level PressureIn,VisibilityMPH,Wind Direction,Wind SpeedMPH,Gust SpeedMPH,PrecipitationIn,Events,Conditions,WindDirDegrees,DateUTC
12:15 AM,24.8,14.0,64,30.54,10.0,Calm,Calm,-,N/A,,Clear,0,2013-11-25 05:15:00
12:35 AM,24.8,14.0,64,30.54,10.0,Calm,Calm,-,N/A,,Clear,0,2013-11-25 05:35:00
12:55 AM,23.0,14.0,68,30.55,10.0,Calm,Calm,-,N/A,,Clear,0,2013-11-25 05:55:00
1:15 AM,23.0,14.0,68,30.54,10.0,Calm,Calm,-,N/A,,Clear,0,2013-11-25 06:15:00
1:35 AM,21.2,14.0,74,30.54,10.0,Calm,Calm,-,N/A,,Clear,0,2013-11-25 06:35:00
1:55 AM,21.2,14.0,74,30.53,10.0,Calm,Calm,-,N/A,,Clear,0,2013-11-25 06:55:00
2:15 AM,21.2,15.8,80,30.53,10.0,Calm,Calm,-,N/A,,Clear,0,2013-11-25 07:15:00
2:35 AM,23.0,12.2,63,30.53,10.0,Calm,Calm,-,N/A,,Clear,0,2013-11-25 07:35:00
2:55 AM,23.0,14.0,68,30.54,10.0,Calm,Calm,-,N/A,,Clear,0,2013-11-25 07:55:00
3:15 AM,21.2,15.8,80,30.54,10.0,Calm,Calm,-,N/A,,Clear,0,2013-11-25 08:15:00
3:35 AM,19.4,15.8,86,30.54,10.0,Calm,Calm,-,N/A,,Clear,0,2013-11-25 08:35:00
3:55 AM,19.4,14.0,80,30.54,10.0,Calm,Calm,-,N/A,,Clear,0,2013-11-25 08:55:00
4:15 AM,19.4,15.8,86,30.54,10.0,Calm,Calm,-,N/A,,Clear,0,2013-11-25 09:15:00
4:35 AM,19.4,15.8,86,30.54,10.0,Calm,Calm,-,N/A,,Clear,0,2013-11-25 09:35:00
4:55 AM,19.4,17.6,93,30.55,10.0,Calm,Calm,-,N/A,,Clear,0,2013-11-25 09:55:00
5:15 AM,19.4,15.8,86,30.54,10.0,Calm,Calm,-,N/A,,Clear,0,2013-11-25 10:15:00
5:35 AM,19.4,14.0,80,30.55,10.0,Calm,Calm,-,N/A,,Clear,0,2013-11-25 10:35:00
5:55 AM,19.4,15.8,86,30.55,10.0,Calm,Calm,-,N/A,,Clear,0,2013-11-25 10:55:00
6:15 AM,19.4,14.0,80,30.55,10.0,Calm,Calm,-,N/A,,Clear,0,2013-11-25 11:15:00
6:35 AM,17.6,15.8,93,30.55,10.0,Calm,Calm,-,N/A,,Clear,0,2013-11-25 11:35:00
6:55 AM,19.4,15.8,86,30.55,10.0,Calm,Calm,-,N/A,,Clear,0,2013-11-25 11:55:00
7:15 AM,19.4,14.0,80,30.55,10.0,Calm,Calm,-,N/A,,Clear,0,2013-11-25 12:15:00
7:35 AM,21.2,14.0,74,30.55,10.0,Calm,Calm,-,N/A,,Clear,0,2013-11-25 12:35:00
7:55 AM,23.0,14.0,68,30.56,10.0,Calm,Calm,-,N/A,,Clear,0,2013-11-25 12:55:00
8:15 AM,23.0,15.8,74,30.57,10.0,Calm,Calm,-,N/A,,Clear,0,2013-11-25 13:15:00
8:35 AM,24.8,15.8,69,30.57,10.0,Calm,Calm,-,N/A,,Clear,0,2013-11-25 13:35:00
8:55 AM,24.8,14.0,64,30.57,10.0,Calm,Calm,-,N/A,,Clear,0,2013-11-25 13:55:00
9:15 AM,28.4,10.4,47,30.58,10.0,Calm,Calm,-,N/A,,Clear,0,2013-11-25 14:15:00
9:35 AM,30.2,6.8,37,30.58,10.0,ESE,3.5,-,N/A,,Clear,110,2013-11-25 14:35:00
9:55 AM,32.0,6.8,35,30.58,10.0,Calm,Calm,-,N/A,,Clear,0,2013-11-25 14:55:00
10:15 AM,33.8,6.8,32,30.57,10.0,ENE,3.5,-,N/A,,Clear,70,2013-11-25 15:15:00
10:35 AM,33.8,5.0,30,30.57,10.0,ESE,3.5,-,N/A,,Clear,110,2013-11-25 15:35:00
10:55 AM,33.8,3.2,28,30.56,10.0,Calm,Calm,-,N/A,,Clear,0,2013-11-25 15:55:00
11:15 AM,35.6,5.0,28,30.55,10.0,East,3.5,-,N/A,,Clear,80,2013-11-25 16:15:00
11:35 AM,37.4,5.0,26,30.53,10.0,ENE,3.5,-,N/A,,Clear,60,2013-11-25 16:35:00
11:55 AM,39.2,3.2,22,30.50,10.0,Calm,Calm,-,N/A,,Clear,0,2013-11-25 16:55:00
12:15 PM,39.2,1.4,21,30.50,10.0,East,4.6,-,N/A,,Clear,90,2013-11-25 17:15:00
12:35 PM,41.0,1.4,19,30.49,10.0,Calm,Calm,-,N/A,,Clear,0,2013-11-25 17:35:00
12:55 PM,41.0,1.4,19,30.49,10.0,Calm,Calm,-,N/A,,Clear,0,2013-11-25 17:55:00
1:15 PM,42.8,1.4,18,30.48,10.0,Calm,Calm,-,N/A,,Mostly Cloudy,0,2013-11-25 18:15:00
1:35 PM,44.6,1.4,17,30.46,10.0,ENE,3.5,-,N/A,,Mostly Cloudy,60,2013-11-25 18:35:00
1:55 PM,44.6,1.4,17,30.45,10.0,NNE,4.6,-,N/A,,Partly Cloudy,20,2013-11-25 18:55:00
2:15 PM,44.6,1.4,17,30.44,10.0,Calm,Calm,-,N/A,,Partly Cloudy,0,2013-11-25 19:15:00
2:35 PM,44.6,5.0,20,30.43,10.0,Calm,Calm,-,N/A,,Clear,0,2013-11-25 19:35:00
2:55 PM,44.6,5.0,20,30.43,10.0,Calm,Calm,-,N/A,,Clear,0,2013-11-25 19:55:00
3:15 PM,44.6,6.8,21,30.42,10.0,NE,4.6,-,N/A,,Clear,40,2013-11-25 20:15:00
3:35 PM,44.6,8.6,23,30.41,10.0,Calm,Calm,-,N/A,,Clear,0,2013-11-25 20:35:00
3:55 PM,44.6,6.8,21,30.41,10.0,Calm,Calm,-,N/A,,Clear,0,2013-11-25 20:55:00
4:15 PM,42.8,10.4,27,30.41,10.0,Calm,Calm,-,N/A,,Clear,0,2013-11-25 21:15:00
4:35 PM,41.0,12.2,31,30.41,10.0,Calm,Calm,-,N/A,,Clear,0,2013-11-25 21:35:00
4:55 PM,41.0,14.0,33,30.42,10.0,Calm,Calm,-,N/A,,Clear,0,2013-11-25 21:55:00
5:15 PM,39.2,14.0,36,30.42,10.0,Calm,Calm,-,N/A,,Clear,0,2013-11-25 22:15:00
5:35 PM,39.2,14.0,36,30.42,10.0,Calm,Calm,-,N/A,,Clear,0,2013-11-25 22:35:00
5:55 PM,39.2,14.0,36,30.41,10.0,Calm,Calm,-,N/A,,Clear,0,2013-11-25 22:55:00
6:15 PM,39.2,14.0,36,30.41,10.0,Calm,Calm,-,N/A,,Clear,0,2013-11-25 23:15:00
6:35 PM,37.4,17.6,45,30.42,10.0,Calm,Calm,-,N/A,,Mostly Cloudy,0,2013-11-25 23:35:00
6:55 PM,37.4,15.8,41,30.42,10.0,Calm,Calm,-,N/A,,Overcast,0,2013-11-25 23:55:00
7:15 PM,39.2,15.8,39,30.43,10.0,Calm,Calm,-,N/A,,Mostly Cloudy,0,2013-11-26 00:15:00
7:35 PM,41.0,10.4,29,30.44,10.0,East,3.5,-,N/A,,Mostly Cloudy,100,2013-11-26 00:35:00
7:55 PM,41.0,12.2,31,30.42,10.0,Calm,Calm,-,N/A,,Overcast,0,2013-11-26 00:55:00
8:15 PM,41.0,10.4,29,30.41,10.0,East,4.6,-,N/A,,Overcast,90,2013-11-26 01:15:00
8:35 PM,41.0,10.4,29,30.40,10.0,Calm,Calm,-,N/A,,Overcast,0,2013-11-26 01:35:00
8:55 PM,41.0,10.4,29,30.40,10.0,Calm,Calm,-,N/A,,Overcast,0,2013-11-26 01:55:00
9:15 PM,41.0,10.4,29,30.39,10.0,Calm,Calm,-,N/A,,Overcast,0,2013-11-26 02:15:00
9:35 PM,41.0,8.6,26,30.38,10.0,Calm,Calm,-,N/A,,Overcast,0,2013-11-26 02:35:00
9:55 PM,41.0,8.6,26,30.39,10.0,Calm,Calm,-,N/A,,Overcast,0,2013-11-26 02:55:00
10:15 PM,41.0,8.6,26,30.38,10.0,Calm,Calm,-,N/A,,Overcast,0,2013-11-26 03:15:00
10:35 PM,41.0,10.4,29,30.37,10.0,Calm,Calm,-,N/A,,Overcast,0,2013-11-26 03:35:00
10:55 PM,39.2,8.6,28,30.37,10.0,NNE,4.6,-,N/A,,Overcast,30,2013-11-26 03:55:00
11:15 PM,39.2,10.4,31,30.35,10.0,Calm,Calm,-,N/A,,Overcast,0,2013-11-26 04:15:00
11:35 PM,39.2,8.6,28,30.35,10.0,Calm,Calm,-,N/A,,Overcast,0,2013-11-26 04:35:00
11:55 PM,39.2,8.6,28,30.33,10.0,ENE,3.5,-,N/A,,Overcast,70,2013-11-26 04:55:00